Regional Weather Roundup
Issued by NWS

Home | Current Version | Previous Version | Graphics & Text | Print | Product List | Glossary On
Versions: 1 2 3 4 5 6 7 8 9 10 11 12 13 14 15 16 17 18 19 20 21 22 23 24 25 26 27 28 29 30 31 32 33 34 35 36 37 38 39 40 41 42 43 44 45 46 47 48 49 50
000
ASUS43 KTOP 150708
RWRKS

WEATHER ROUNDUP FOR KANSAS
NATIONAL WEATHER SERVICE GOODLAND KS
100 AM CST FRI DEC 15 2017

NOTE:  "FAIR" INDICATES FEW OR NO CLOUDS BELOW 12,000 FEET WITH NO
SIGNIFICANT WEATHER AND/OR OBSTRUCTIONS TO VISIBILITY.

KSZ001>006-013>018-027>032-041>047-150800-
NORTHWEST KANSAS

CITY           SKY/WX    TMP DP  RH WIND       PRES   REMARKS
GOODLAND       CLEAR     19  14  81 W9        30.21F
HAYS           MOCLDY    25  22  88 NW9       30.24S
HILL CITY      CLEAR     26  22  84 NW9       30.23S
RUSSELL        CLEAR     26  24  92 NW9       30.21S
$$

KSZ061>065-074>080-084>089-150800-
SOUTHWEST KANSAS

CITY           SKY/WX    TMP DP  RH WIND       PRES   REMARKS
DODGE CITY     CLEAR     25  20  81 NW10      30.25S WCI  15
ELKHART        CLEAR     28  24  87 W10       30.27F WCI  18
GARDEN CITY    CLEAR     23  18  81 NW12      30.26S WCI  12
GREAT BEND     CLEAR     28  24  85 NW8       30.23S
LIBERAL        CLEAR     23  19  85 NW12      30.28F WCI  12
PRATT          PTCLDY    30  24  77 NW8       30.23S
$$

KSZ066>073-081>083-090>101-150800-
SOUTHEAST KANSAS

CITY           SKY/WX    TMP DP  RH WIND       PRES   REMARKS
CHANUTE        CLOUDY    40  31  70 NW9       30.14S
COFFEYVILLE    CLOUDY    42  30  62 NW7       30.16R
HUTCHINSON     MOCLDY    34  31  88 W6        30.20S
MEDICINE LODGE   N/A     29  25  85 NW6       30.23F
NEWTON         CLOUDY    37  30  75 NW13      30.19S WCI  29
PARSONS        CLOUDY    35  29  78 CALM      30.15S
WICHITA INTL   MOCLDY    36  32  85 NW9       30.19S
WICHITA JABRA  CLOUDY    38  33  82 NW13      30.18F WCI  30
WICHITA MCCONL CLOUDY    39  32  75 N16       30.18S WCI  30
WINFIELD       MOCLDY    35  32  88 NW8       30.20S
$$

KSZ007>012-019>026-033>040-048>060-102>105-150800-
NORTHEAST KANSAS

CITY           SKY/WX    TMP DP  RH WIND       PRES   REMARKS
CONCORDIA      CLEAR     30  28  92 W8        30.18S
EMPORIA        CLOUDY    37  30  75 NW10      30.16S WCI  30
LAWRENCE       CLOUDY    36  31  82 W6        30.14S
MANHATTAN      CLOUDY    39  32  76 NW6       30.17S
MARYSVILLE     MOCLDY    34  32  93 NW9       30.15F
OLATHE IND     CLOUDY    36  28  73 NW8       30.13S
OLATHE EXE     CLOUDY    35  27  72 NW6       30.12S
SALINA         CLOUDY    39  31  72 NW12      30.20F WCI  32
TOPEKA BILLARD CLOUDY    37  33  85 NW8       30.15S
TOPEKA FORBES  CLOUDY    37  32  82 NW9       30.14S
$$



USA.gov is the U.S. government's official web portal to all federal, state and local government web resources and services.